Volver al catálogo

IRIDE-MS2-HEO-10

ActivoCienciaSSO
NORAD 68982·PAYLOAD·🇹🇼 Taiwan

Lanzado May 3, 2026 desde Vandenberg Space Force Base

Loading…

Próximos Pases (próximas 24 horas)

TLE

ActualizadoSource: Space-Track

Época: Sep 14, 2026, 15:59 UTC

1 68982U 26100C   26257.66644220  .00001218  00000-0  12758-3 0  9992
2 68982  97.7205 153.2474 0003324 200.9375 159.1709 14.91366404 20034

Sigue IRIDE-MS2-HEO-10 en tiempo real con AllMySat

Download on the App Store